Location: Derby
(52.9213°N, 1.4761°W)
Time: 18:10:51
(UTC+01:00)

Tiros 1 - Pass Details

Date: 27 May 2025
Orbit: 620 x 651 km, 48.4° (Epoch: 13 June)

Event Time Altitude Azimuth Distance (km) Brightness Sun altitude
Rises 21:09:00 0° 275° (W) 2,904 11.6 -0.1°
Reaches altitude 10° 21:11:49 10° 258° (WSW) 2,000 10.3 -0.4°
Maximum altitude 21:15:07 20° 213° (SSW) 1,474 9.0 -0.8°
Drops below altitude 10° 21:18:24 10° 167° (SSE) 2,006 9.2 -1.2°
Enters shadow 21:21:12 - 150° (SSE) 2,904 9.9 -1.5°
Sets 21:21:15 0° 150° (SSE) 2,917 - -1.5°
